Regional Weather Roundup
Issued by NWS

Home | Current Version | Previous Version | Text Only | Print | Product List | Glossary On
Versions: 1 2 3 4 5 6 7 8 9 10 11 12 13 14 15 16 17 18 19 20 21 22 23 24 25 26 27 28 29 30 31 32 33 34 35 36 37 38 39 40 41 42 43 44 45 46 47 48 49 50
000
ASCA42 TJSJ 021011
RWRPR
PUERTO RICO/U.S. VIRGIN ISLANDS HOURLY WEATHER ROUNDUP
NATIONAL WEATHER SERVICE SAN JUAN PR
600 AM AST TUE SEP 02 2014

PRZ001-004-021100-
PUERTO RICO

CITY           SKY/WX    TMP DP  RH WIND       PRES   REMARKS
SAN JUAN LMM   PTCLDY    79  75  89 SE3       29.98R
CEIBA          MOCLDY    81  75  83 E7        30.00R
$$

PRZ006-007-021100-
U.S. VIRGIN ISLANDS

CITY           SKY/WX    TMP DP  RH WIND       PRES   REMARKS
CHRISTIANSTED  MOCLDY    81  75  83 E7        29.97
$$

HOURLY WEATHER ROUNDUP FOR THE NEWS MEDIA

CITY           SKY/WX    TMP DP  RH WIND       PRES   REMARKS
MIAMI          PTCLDY    80  73  79 CALM      30.01S
ORLANDO        CLEAR     77  73  87 SE5       30.03F
NEW YORK       CLEAR     75  72  90 SW6       29.91S
NEWARK         PTCLDY    76  73  91 SW6       29.90R
CHICAGO        CLOUDY    68  64  87 W5        29.87S
HARTFORD       FOG       70  70 100 S3        29.91R VSB 1/2
BOSTON         PTCLDY    72  70  93 S7        29.89S
DALLAS         CLEAR     81  70  69 S14       29.88S
PHILADELPHIA   PTCLDY    76  71  85 SW7       29.92R



USA.gov is the U.S. government's official web portal to all federal, state and local government web resources and services.